Location: Montreal
(45.5000°N, 73.5833°W)
Time: 10:42:10
(UTC-04:00)

Tiangong 1 - Pass Details

Date: 12 October 2017
Orbit: 293 x 320 km, 42.8° (Epoch: 19 October)

Event Time Altitude Azimuth Distance (km) Brightness Sun altitude
Rises 19:43:06 0° 270° (W) 2,040 6.5 -16.5°
Reaches altitude 10° 19:45:12 10° 259° (W) 1,204 4.7 -16.8°
Maximum altitude 19:47:39 31° 194° (SSW) 577 2.0 -17.2°
Enters shadow 19:47:50 30° 185° (S) 582 1.9 -17.3°
